Theta_e
339 336 342 339 339 340 343 345 344 344 346 345 344 342 345 346 345 342 345 343 344 344 343 345 346 347 345 347 348 347 347 343 342 346 346 344 345 345 344 341 343 346 345
342 337 338 339 340 340 339 342 341 343 344 344 344 341 348 346 345 345 343 342 341 343 344 345 342 346 346 345 346 346 346 343 345 342 344 345 345 345 343 343 343 344 344
345 340 338 340 339 339 338 341 341 343 345 343 343 344 345 345 345 343 342 345 344 342 343 343 343 342 343 344 344 345 345 347 347 346 347 345 345 345 344 341 345 344 344
346 344 339 338 338 337 337 338 338 342 343 345 344 343 344 343 342 343 345 344 343 345 344 343 343 342 343 343 345 344 347 347 347 346 347 346 345 346 345 345 345 345 345
347 346 343 339 338 339 339 339 341 341 343 343 344 344 346 348 347 345 345 345 343 343 342 344 345 344 346 346 343 343 345 344 346 344 346 346 343 344 346 343 343 344 344
346 346 346 339 341 343 346 348 346 345 344 345 345 345 346 346 348 347 345 345 344 344 344 344 346 348 347 345 345 345 346 345 344 345 345 343 343 343 345 344 343 343 343
346 347 347 343 344 346 347 349 346 346 346 345 345 343 344 346 348 346 345 344 344 344 345 344 344 343 344 345 346 347 346 346 346 346 346 343 345 345 343 345 345 343 340
346 347 347 347 343 344 346 344 346 347 346 348 347 346 345 344 343 345 345 344 343 341 343 343 341 345 345 345 344 344 346 346 345 346 345 346 345 346 346 345 343 343 344
346 347 348 349 348 347 348 347 346 344 347 348 347 348 348 346 346 345 345 344 345 345 342 342 343 344 342 341 342 342 344 344 345 345 344 343 343 343 344 345 343 342 344
347 348 349 349 349 348 348 345 348 343 347 348 346 345 340 339 339 340 339 339 338 337 337 340 342 342 339 338 342 342 342 342 343 342 342 343 342 341 342 341 342 342 343
347 348 349 349 348 347 347 348 346 347 348 346 340 331 330 333 334 336 336 338 337 334 331 332 333 333 334 334 333 336 339 339 340 343 345 344 343 344 344 342 342 342 343
348 348 350 350 349 348 348 350 349 348 340 332 332 336 337 338 338 336 337 338 336 337 337 337 339 338 336 334 335 337 339 339 340 341 343 343 343 343 343 344 344 343 343
350 349 348 349 350 351 351 349 343 337 335 336 336 337 339 340 338 335 335 334 336 338 339 340 341 337 335 333 332 332 332 335 339 340 341 341 341 340 340 339 339 340 341
350 351 351 352 351 349 349 345 336 340 337 340 340 340 337 336 336 336 333 331 330 332 338 339 337 334 335 334 333 333 331 328 331 337 337 337 337 337 337 336 336 338 338
349 351 349 350 349 347 346 338 340 340 341 339 339 340 337 336 335 333 332 332 330 328 329 330 331 331 330 329 328 328 328 327 327 334 332 334 334 333 333 332 332 333 333
351 348 346 345 348 340 336 339 341 341 342 341 339 339 339 336 333 333 333 333 329 327 326 328 328 328 328 329 328 329 326 326 330 334 333 333 332 331 331 331 332 333 333
342 341 347 345 336 339 342 342 342 344 343 338 337 337 334 332 332 333 333 331 330 328 325 327 328 327 327 327 328 330 331 334 336 331 330 330 329 329 329 331 332 333 334
333 336 335 337 339 341 341 337 336 335 333 332 332 332 332 332 332 333 333 331 330 328 326 328 328 328 328 327 327 328 329 329 329 329 329 328 329 330 330 331 333 332 332
328 332 335 337 341 341 338 334 333 332 331 333 333 332 332 331 332 333 332 329 327 327 327 328 327 327 327 327 327 327 328 328 328 328 329 329 330 331 332 332 331 330 329
339 334 332 335 339 337 333 332 331 330 331 331 331 331 332 331 331 332 329 326 327 327 327 327 327 327 327 327 328 328 327 327 328 329 330 330 330 330 330 329 327 326 325
343 339 333 336 335 331 330 328 329 330 330 329 327 328 327 327 331 331 326 325 327 327 327 327 327 326 327 327 327 326 326 327 327 327 328 327 327 327 326 325 324 324 323
342 341 340 332 329 329 328 328 329 329 327 328 328 326 326 328 328 325 325 326 326 326 326 325 324 325 326 325 325 325 326 325 326 325 325 324 324 323 323 323 322 322 320
336 338 339 334 333 331 331 330 329 328 326 328 329 326 326 327 326 326 326 326 325 325 324 324 324 324 324 325 325 324 323 324 324 324 323 323 322 322 322 321 320 320 320
333 333 335 335 335 332 332 331 330 330 329 328 328 326 325 326 326 327 326 325 325 323 322 323 323 323 324 323 324 324 323 323 323 323 323 323 322 321 321 320 318 318 318
333 333 332 336 336 334 332 331 331 331 330 329 328 326 325 327 326 326 324 324 323 322 321 322 320 319 318 317 316 316 316 318 318 318 317 317 317 317 317 317 316 315 314
335 336 336 337 336 333 331 331 331 331 329 328 328 325 326 327 327 325 323 321 319 318 317 318 317 315 316 316 316 315 316 316 317 317 317 317 317 317 318 318 318 319 317
Wind_Speed
27 28 29 28 27 24 22 22 19 20 18 16 14 14 20 22 18 14 12 12 12 11 13 14 14 14 14 14 12 12 12 12 16 14 11 10 12 13 16 15 20 21 20
23 27 28 28 27 25 24 24 22 22 19 16 14 13 16 20 20 19 17 15 15 15 13 14 16 15 15 14 15 15 15 14 16 17 17 16 14 13 14 15 14 17 17
25 25 27 27 27 26 24 26 24 23 22 20 18 19 20 21 20 20 20 20 20 19 17 18 18 19 19 19 18 17 15 15 16 18 17 16 16 16 17 15 14 18 16
29 24 26 27 26 25 24 23 24 22 20 18 19 18 17 16 17 19 20 22 21 21 18 18 19 19 19 19 19 18 18 18 18 18 18 18 16 15 15 17 19 18 18
31 26 23 25 25 23 22 21 19 20 21 20 19 19 19 17 16 17 18 18 18 19 19 19 18 18 19 18 20 21 21 21 20 20 20 19 17 20 21 19 18 18 18
32 27 24 23 23 22 19 17 18 18 19 20 21 22 21 22 18 18 19 18 19 20 20 19 20 20 21 20 22 24 24 24 22 20 21 23 21 19 18 18 19 21 23
34 29 23 23 24 22 20 18 16 17 18 22 18 16 20 21 19 20 19 19 21 21 21 23 22 22 22 23 24 24 24 25 25 25 26 27 25 22 20 21 23 26 28
30 30 26 23 22 19 19 17 19 16 18 17 15 15 18 16 16 17 18 19 19 21 21 22 22 21 21 23 25 27 26 26 26 26 27 25 23 21 21 21 22 25 27
33 30 26 23 21 19 20 18 17 15 14 14 13 13 16 16 15 15 17 18 20 19 21 22 22 22 20 20 23 25 27 29 29 29 29 29 29 27 25 25 27 27 29
29 27 25 23 20 17 17 17 16 13 12 12 13 14 13 11 11 12 13 14 16 16 17 18 18 19 20 20 21 22 25 25 25 27 28 29 29 29 27 28 27 28 29
21 19 20 23 20 17 16 14 13 13 13 12 10 10 10 10 9 9 11 12 12 14 16 16 16 16 17 20 22 23 23 22 21 24 23 25 27 26 26 27 27 28 28
18 18 20 20 19 18 16 13 11 10 10 10 10 9 8 9 9 8 11 16 15 18 18 17 17 18 19 18 18 18 19 20 20 19 21 22 22 21 19 21 25 26 27
20 20 19 18 18 16 14 12 10 10 8 9 10 10 12 15 12 13 16 16 18 19 19 20 21 22 21 19 19 19 19 19 19 20 19 19 19 18 18 19 19 18 18
20 18 18 17 16 14 11 9 10 10 9 8 10 11 8 11 14 16 17 15 16 20 22 23 26 27 25 26 26 23 23 21 20 18 18 16 15 15 14 15 16 17 17
18 17 16 15 13 11 10 9 9 9 10 11 11 11 12 14 15 16 14 14 18 19 22 25 27 29 30 30 28 28 27 24 21 17 17 18 16 17 17 18 21 18 17
16 16 15 13 12 10 10 11 10 11 11 13 14 15 15 15 14 14 15 17 20 21 23 23 23 23 24 24 24 23 21 21 18 16 18 19 18 18 20 22 18 15 14
15 14 14 12 12 13 12 11 15 16 14 15 15 15 15 15 16 17 18 19 21 24 22 19 17 16 16 16 13 10 10 11 14 15 17 18 19 21 19 17 14 14 15
12 12 13 13 13 12 10 10 10 10 11 10 11 13 14 15 18 19 20 21 23 25 20 15 14 15 14 13 12 12 12 14 16 18 20 21 20 18 17 16 14 13 14
13 15 14 12 11 10 10 10 10 9 9 10 11 14 16 17 18 19 18 21 24 23 16 13 14 15 14 15 15 16 17 17 18 19 18 17 15 14 13 12 12 11 12
14 14 12 10 12 12 11 11 10 11 10 11 15 14 16 18 16 15 16 21 24 20 14 12 14 16 16 17 17 15 15 15 14 13 12 12 12 11 10 10 10 11 12
15 15 12 12 14 12 12 12 10 10 11 13 14 13 14 13 13 15 16 21 18 14 13 13 14 15 15 14 14 15 14 12 11 12 11 10 9 9 8 10 11 12 16
17 18 16 15 15 13 11 10 10 11 13 11 11 16 12 10 10 12 16 15 11 10 12 15 11 10 11 11 11 10 9 10 9 8 7 7 8 9 10 11 12 19 22
21 21 21 21 19 14 13 11 10 10 11 13 14 17 13 10 8 10 10 7 8 11 8 4 4 5 5 5 6 6 5 5 5 6 6 8 11 14 15 19 21 20 18
31 25 26 25 24 18 14 11 12 11 12 13 14 18 12 10 9 8 7 5 7 5 2 2 3 5 5 4 6 8 10 11 14 16 18 19 21 22 22 20 16 13 11
37 31 30 26 24 22 16 13 13 15 15 14 14 18 11 9 9 8 6 7 6 4 2 2 4 5 9 11 12 15 17 18 19 21 21 21 20 19 16 14 10 8 8
34 27 25 24 23 20 16 16 16 17 16 15 16 15 12 11 11 11 7 6 5 4 6 7 9 12 12 12 13 14 15 14 13 12 12 12 12 11 8 5 4 4 6
Wind_Direction
211 209 208 208 210 209 208 209 215 216 222 230 234 246 232 228 232 247 250 248 251 252 253 250 252 255 255 258 256 258 265 277 273 274 266 262 270 265 258 266 253 242 244
213 212 211 212 216 217 216 220 220 222 226 232 238 238 222 227 241 255 254 257 257 252 256 260 258 258 261 258 257 261 268 277 272 271 273 277 284 253 269 281 257 245 252
210 213 211 213 218 220 220 221 226 231 232 244 235 232 236 243 247 251 257 259 263 260 266 266 266 260 260 260 261 264 259 266 275 273 276 279 274 262 271 280 272 256 263
209 211 212 210 213 216 219 222 227 230 230 234 236 242 243 247 251 254 259 259 260 264 267 267 266 259 263 262 260 258 262 267 271 275 277 282 274 261 261 272 274 265 258
211 210 213 213 213 218 221 222 224 226 230 236 240 243 247 251 256 260 259 259 260 265 264 261 262 260 260 263 257 257 261 265 267 269 270 273 276 266 268 277 269 268 263
210 213 210 207 204 207 212 220 226 237 242 249 256 254 255 249 258 263 267 265 263 262 263 261 264 264 261 262 260 263 264 265 264 264 262 266 271 272 272 270 269 266 266
212 211 214 213 217 215 221 224 237 245 248 255 251 242 255 261 267 267 268 267 264 266 267 269 269 268 267 267 266 266 264 263 259 264 267 267 270 269 272 271 269 272 274
218 215 216 219 221 226 228 226 241 252 254 257 256 257 257 269 267 265 266 265 264 269 265 270 273 275 270 268 268 263 260 259 260 263 263 267 268 271 274 273 271 271 269
218 217 220 223 228 234 228 237 238 245 256 257 254 256 266 270 269 267 267 267 269 268 265 266 269 272 274 273 273 271 266 260 258 261 263 264 265 264 264 266 268 270 268
217 220 221 224 229 232 231 239 242 242 242 247 262 269 267 263 256 257 261 264 268 268 267 267 268 272 277 278 276 273 272 274 269 263 262 263 264 263 260 260 262 266 268
211 218 219 223 220 225 238 240 234 233 241 253 250 251 249 255 254 261 265 271 284 272 268 267 271 274 280 283 276 273 275 277 276 271 270 267 259 256 259 258 259 262 265
213 211 212 211 213 218 226 221 226 235 240 241 232 237 251 263 269 280 282 271 271 276 275 271 266 273 283 285 283 278 275 275 277 277 271 271 273 266 259 260 258 256 258
205 203 200 198 207 214 216 225 221 215 223 232 234 242 258 271 267 282 292 290 277 267 267 271 273 279 277 280 282 282 282 279 274 273 275 276 277 274 266 266 268 265 260
190 190 192 201 202 209 216 226 222 223 238 233 260 269 275 285 287 295 299 299 290 278 274 272 274 276 274 277 279 277 279 278 269 262 272 276 279 282 282 286 287 281 276
193 197 198 200 205 212 226 219 225 228 243 254 266 274 284 295 298 295 299 304 310 296 280 277 279 280 279 278 277 275 271 267 260 253 261 266 273 277 281 285 286 276 270
196 198 199 205 204 209 205 209 226 242 258 266 269 271 278 284 290 292 292 301 309 309 294 288 287 288 288 286 282 278 266 256 247 240 258 269 272 276 279 284 274 262 257
200 203 205 204 195 192 207 236 252 256 265 274 273 271 275 280 283 283 284 294 304 314 303 288 290 300 299 299 296 294 275 253 243 258 263 266 275 282 280 273 256 251 246
193 200 201 195 201 207 228 249 254 253 264 275 279 280 284 288 284 283 285 295 309 313 306 285 285 293 291 289 283 276 269 263 260 264 267 270 272 269 266 262 246 248 239
197 194 192 197 210 223 236 241 254 261 279 289 295 293 289 291 287 282 291 308 313 307 304 284 290 287 284 282 280 279 275 272 269 267 265 264 261 259 253 240 232 238 226
218 207 183 198 222 231 238 243 257 268 283 297 305 301 295 294 290 288 300 313 313 305 300 288 288 283 281 280 279 277 275 277 272 268 263 257 250 241 233 229 217 207 191
216 227 195 206 227 232 240 249 258 274 292 299 303 304 306 301 291 298 309 313 308 305 302 294 287 284 282 281 282 279 274 270 266 272 263 244 232 224 204 192 188 178 163
220 221 226 215 219 235 239 248 273 293 303 307 311 321 315 306 298 310 310 309 304 307 304 300 298 290 277 274 273 270 266 262 252 238 228 211 190 171 167 167 160 152 147
229 226 226 227 229 229 240 254 274 298 307 305 310 326 314 302 291 298 306 305 319 319 324 327 307 301 277 255 247 240 232 221 193 170 171 160 149 146 141 140 138 141 146
231 226 226 228 229 235 239 257 272 289 305 301 309 323 305 292 287 287 286 282 291 299 335 15 71 89 96 113 118 113 113 117 122 117 116 121 121 120 127 129 129 135 158
221 219 217 223 233 238 242 252 275 291 298 299 304 317 287 277 272 262 266 267 264 261 255 161 127 111 117 118 116 116 116 118 121 121 123 124 124 125 128 128 132 143 153
212 214 222 229 230 231 245 258 271 283 293 293 299 307 273 265 252 236 239 224 215 192 155 154 149 137 130 127 127 127 129 134 134 137 142 144 146 150 155 164 195 213 212